This is the latest recevied weather packets stored in our database for station/object DL2MWB-13. If no packets are shown the sender has not sent any weather packets the latest 10 day(s).
| Time | Temp. | Humidity | Pressure | Rain* | Wind** | Luminosity | Snow |
|---|---|---|---|---|---|---|---|
| 1777211362 | 18.33° C | 24% | 1025 hPa | - | - | - | - |
| 1777210759 | 18.33° C | 22% | 1026 hPa | - | - | - | - |
| 1777210155 | 18.33° C | 22% | 1026 hPa | - | - | - | - |
| 1777209552 | 18.89° C | 23% | 1026 hPa | - | - | - | - |
| 1777208948 | 18.33° C | 24% | 1026 hPa | - | - | - | - |
| 1777208345 | 17.78° C | 24% | 1026 hPa | - | - | - | - |
| 1777207741 | 17.78° C | 25% | 1026 hPa | - | - | - | - |
| 1777207138 | 17.78° C | 24% | 1026 hPa | - | - | - | - |
| 1777206534 | 17.78° C | 24% | 1026 hPa | - | - | - | - |
| 1777205931 | 17.78° C | 25% | 1026 hPa | - | - | - | - |
| 1777205327 | 17.78° C | 27% | 1026 hPa | - | - | - | - |
| 1777204724 | 17.78° C | 27% | 1026 hPa | - | - | - | - |
| 1777204120 | 17.22° C | 28% | 1026 hPa | - | - | - | - |
| 1777203517 | 17.22° C | 28% | 1027 hPa | - | - | - | - |
| 1777202913 | 16.11° C | 29% | 1027 hPa | - | - | - | - |
| 1777202310 | 16.11° C | 28% | 1027 hPa | - | - | - | - |
| 1777201706 | 16.67° C | 29% | 1027 hPa | - | - | - | - |
| 1777201103 | 15.56° C | 30% | 1027 hPa | - | - | - | - |
| 1777200499 | 15.56° C | 34% | 1027 hPa | - | - | - | - |
| 1777199896 | 16.11° C | 35% | 1027 hPa | - | - | - | - |
| 1777199292 | 15.56° C | 37% | 1027 hPa | - | - | - | - |
| 1777198689 | 15.56° C | 36% | 1027 hPa | - | - | - | - |
| 1777198085 | 15° C | 38% | 1027 hPa | - | - | - | - |
| 1777197482 | 15° C | 37% | 1027 hPa | - | - | - | - |
| 1777196878 | 14.44° C | 38% | 1027 hPa | - | - | - | - |
* Rain since midnight (hover to see other rain measurements)
** Current wind speed in m/s (hover to see current wind gust speed)